{"data":{"norad_id":44753,"epoch":"2026-05-24T10:17:10.084416Z","epoch_age_seconds":114521,"freshness":"FRESH","line1":"1 44753U 19074AS  26144.42858894  .00036756  00000+0  36081-3 0  9996","line2":"2 44753  53.0444 159.7798 0007285   9.6544 350.4610 15.65688640360828","mean_motion":15.6568864,"eccentricity":0.0007285,"inclination_deg":53.0444,"raan_deg":159.7798,"arg_perigee_deg":9.6544,"mean_anomaly_deg":350.461,"bstar":0.00036081,"rev_number":36082,"period_min":91.972309385856,"perigee_km":366.34203182253,"apogee_km":376.17590174614,"semimajor_km":6749.3959667843,"source":"CELESTRAK","updated_at":"2026-05-25T13:38:16.374305Z"}}